Weather History for Tupelo, MS

Change the Weather History Date:

Sunday, February 23, 2014

  Actual Average Record
Temperature  
Mean Temperature 56 °F 48 °F  
Max Temperature 72 °F 59 °F 84 °F (1996)
Min Temperature 39 °F 37 °F 18 °F (1963)
Degree Days  
Heating Degree Days 9 17  
Month to date heating degree days 500 454  
Since 1 July heating degree days 2707 2350  
Cooling Degree Days 0 0  
Month to date cooling degree days 0 0  
Year to date cooling degree days 0 1  
Growing Degree Days 6 (Base 50)    
Moisture  
Dew Point 39 °F    
Average Humidity 60    
Maximum Humidity 85    
Minimum Humidity 34    
Precipitation  
Precipitation 0.00 in 0.20 in 1.89 in (1962)
Month to date precipitation 4.00 4.01  
Year to date precipitation 5.77 8.49  
Snow  
Snow 0.00 in 0.00 in 0.50 in (1935)
Month to date snowfall 0.5 0.5  
Since 1 July snowfall 0.5 1.7  
Snow Depth 0.00 in    
Sea Level Pressure  
Sea Level Pressure 30.02 in    
Wind  
Wind Speed 6 mph (North)    
Max Wind Speed 20 mph    
Max Gust Speed 24 mph    
Visibility 10 miles    
Events      
T = Trace of Precipitation, MM = Missing Value Source: NWS Daily Summary

Daily Weather History Graph

Daily Weather History Graph

Search for Another Location

Airport:

Trip Planner

Search our weather history database for the weather conditions in past years. The results will help you decide how hot, cold, wet, or windy it might be!

Date:

Astronomy

Feb. 23, 2014 Rise Set
Actual Time 6:31 AM CST 5:46 PM CST
Civil Twilight 6:05 AM CST 6:11 PM CST
Nautical Twilight 5:36 AM CST 6:40 PM CST
Astronomical Twilight 5:07 AM CST 7:09 PM CST
Moon 1:21 AM CST (2/23) 11:56 AM CST (2/23)
Length of Visible Light 12h 05m
Length of Day
11h 14m
Last Quarter, 38% of the Moon is Illuminated
Feb 23
Last Quarter
Mar 1
New
Mar 8
First Quarter
Mar 16
Full
Mar 23
Last Quarter

Hourly Weather History & Observations

Time (CST) Temp. Windchill Dew Point Humidity Pressure Visibility Wind Dir Wind Speed Gust Speed Precip Events Conditions
12:53 AM 46.9 °F - 35.1 °F 63% 30.02 in 10.0 mi Calm Calm - N/A   Overcast
1:53 AM 48.0 °F - 35.1 °F 61% 30.02 in 10.0 mi Calm Calm - N/A   Overcast
2:53 AM 46.0 °F - 36.0 °F 68% 30.01 in 10.0 mi Calm Calm - N/A   Mostly Cloudy
3:53 AM 43.0 °F - 35.1 °F 74% 30.01 in 10.0 mi Calm Calm - N/A   Clear
4:53 AM 42.1 °F 40.2 °F 34.0 °F 73% 30.01 in 10.0 mi SSE 3.5 mph - N/A   Clear
5:53 AM 41.0 °F - 35.1 °F 79% 30.00 in 10.0 mi Calm Calm - N/A   Clear
6:53 AM 39.9 °F - 35.1 °F 83% 30.00 in 10.0 mi Calm Calm - N/A   Clear
7:53 AM 46.9 °F - 39.0 °F 74% 30.01 in 10.0 mi SSW 3.5 mph - N/A   Clear
8:53 AM 54.0 °F - 37.0 °F 53% 30.03 in 10.0 mi SSW 6.9 mph - N/A   Clear
9:53 AM 60.1 °F - 37.9 °F 44% 30.03 in 10.0 mi Variable 3.5 mph - N/A   Clear
10:53 AM 64.0 °F - 39.9 °F 41% 30.03 in 10.0 mi SW 4.6 mph - N/A   Scattered Clouds
11:53 AM 66.9 °F - 46.0 °F 47% 30.01 in 10.0 mi West 8.1 mph - N/A   Clear
12:53 PM 69.1 °F - 44.1 °F 40% 29.98 in 10.0 mi West 5.8 mph - N/A   Clear
1:53 PM 69.1 °F - 42.1 °F 38% 29.96 in 10.0 mi Calm Calm - N/A   Clear
2:53 PM 70.0 °F - 42.1 °F 36% 29.95 in 10.0 mi Calm Calm - N/A   Clear
3:53 PM 72.0 °F - 41.0 °F 33% 29.94 in 10.0 mi SW 3.5 mph - N/A   Clear
4:53 PM 69.1 °F - 42.1 °F 38% 29.96 in 10.0 mi NE 4.6 mph - N/A   Clear
5:53 PM 64.0 °F - 41.0 °F 43% 29.98 in 10.0 mi ENE 3.5 mph - N/A   Clear
6:53 PM 57.9 °F - 43.0 °F 58% 30.01 in 10.0 mi NNE 15.0 mph 24.2 mph N/A   Clear
7:53 PM 57.0 °F - 39.0 °F 51% 30.03 in 10.0 mi North 11.5 mph - N/A   Partly Cloudy
8:53 PM 53.1 °F - 37.9 °F 57% 30.06 in 10.0 mi NNE 16.1 mph - N/A   Clear
9:53 PM 50.0 °F - 37.0 °F 61% 30.10 in 10.0 mi NNE 16.1 mph - N/A   Clear
10:53 PM 48.0 °F - 37.0 °F 66% 30.11 in 10.0 mi NNE 11.5 mph - N/A   Mostly Cloudy
11:53 PM 48.0 °F - 37.0 °F 66% 30.12 in 10.0 mi NNE 16.1 mph - N/A   Mostly Cloudy